Weather History for KCSM - May, 2014

Change the Weather History Date:

Saturday, May 10, 2014

  Actual Average Record
Temperature  
Mean Temperature 76 °F -  
Max Temperature 91 °F 78 °F 91 °F (2005)
Min Temperature 60 °F 54 °F 41 °F (1997)
Cooling Degree Days 10    
Growing Degree Days 26 (Base 50)    
Moisture  
Dew Point 53 °F    
Average Humidity 47    
Maximum Humidity 72    
Minimum Humidity 23    
Precipitation  
Precipitation 0.00 in - - ()
Sea Level Pressure  
Sea Level Pressure 29.69 in    
Wind  
Wind Speed 17 mph (South)    
Max Wind Speed 29 mph    
Max Gust Speed 40 mph    
Visibility 10 miles    
Events      
Averages and records for this station are not official NWS values.
T = Trace of Precipitation, MM = Missing Value Source: NWS Daily Summary

Daily Weather History Graph

Daily Weather History Graph

Search for Another Location

Airport or City:

Trip Planner

Search our weather history database for the weather conditions in past years. The results will help you decide how hot, cold, wet, or windy it might be!

Date:

Astronomy

May. 10, 2014 Rise Set
Actual Time 6:36 AM CDT 8:30 PM CDT
Civil Twilight 6:08 AM CDT 8:58 PM CDT
Nautical Twilight 5:35 AM CDT 9:32 PM CDT
Astronomical Twilight 4:59 AM CDT 10:08 PM CDT
Moon 4:36 PM CDT (5/10) 4:00 AM CDT (5/10)
Length of Visible Light 14h 49m
Length of Day
13h 53m
Waxing Gibbous, 82% of the Moon is Illuminated
May 10
Waxing Gibbous
May 14
Full
May 21
Last Quarter
May 28
New
Jun 5
First Quarter

Hourly Weather History & Observations

Time (CDT) Temp. Heat Index Dew Point Humidity Pressure Visibility Wind Dir Wind Speed Gust Speed Precip Events Conditions
12:53 AM 62.1 °F - 50.0 °F 65% 29.79 in 10.0 mi SE 10.4 mph - N/A   Clear
1:53 AM 63.0 °F - 48.9 °F 60% 29.78 in 10.0 mi SSE 13.8 mph - N/A   Clear
2:53 AM 60.1 °F - 48.0 °F 64% 29.75 in 10.0 mi South 10.4 mph - N/A   Clear
3:53 AM 63.0 °F - 48.9 °F 60% 29.73 in 10.0 mi South 15.0 mph - N/A   Clear
4:53 AM 63.0 °F - 52.0 °F 67% 29.73 in 10.0 mi South 15.0 mph - N/A   Clear
6:53 AM 61.0 °F - 52.0 °F 72% 29.75 in 10.0 mi South 15.0 mph - N/A   Clear
7:53 AM 64.9 °F - 51.1 °F 61% 29.76 in 10.0 mi South 16.1 mph - N/A   Clear
8:53 AM 70.0 °F - 52.0 °F 53% 29.76 in 10.0 mi SSW 17.3 mph 25.3 mph N/A   Clear
9:53 AM 75.0 °F - 53.1 °F 46% 29.76 in 10.0 mi SSW 21.9 mph 27.6 mph N/A   Clear
10:53 AM 80.1 °F - 52.0 °F 38% 29.75 in 10.0 mi SSW 18.4 mph 27.6 mph N/A   Partly Cloudy
11:53 AM 84.9 °F - 52.0 °F 32% 29.74 in 10.0 mi SSW 17.3 mph 25.3 mph N/A   Clear
12:53 PM 88.0 °F 86.1 °F 55.0 °F 32% 29.71 in 10.0 mi South 18.4 mph 27.6 mph N/A   Clear
1:53 PM 91.9 °F - 48.9 °F 23% 29.68 in 10.0 mi South 23.0 mph 33.4 mph N/A   Clear
2:53 PM 91.0 °F 88.9 °F 55.0 °F 29% 29.65 in 10.0 mi SSE 24.2 mph 34.5 mph N/A   Clear
4:53 PM 91.9 °F 89.5 °F 53.1 °F 27% 29.60 in 10.0 mi South 21.9 mph 40.3 mph N/A   Clear
5:53 PM 91.9 °F - 52.0 °F 26% 29.58 in 10.0 mi South 24.2 mph 35.7 mph N/A   Clear
6:53 PM 90.0 °F - 51.1 °F 26% 29.57 in 10.0 mi SSE 20.7 mph 32.2 mph N/A   Clear
7:53 PM 87.1 °F - 51.1 °F 29% 29.57 in 10.0 mi SE 20.7 mph 26.5 mph N/A   Clear
8:53 PM 81.0 °F 81.1 °F 57.9 °F 45% 29.59 in 10.0 mi SE 23.0 mph 31.1 mph N/A   Clear
10:53 PM 77.0 °F - 61.0 °F 58% 29.61 in 10.0 mi SSE 28.8 mph 38.0 mph N/A   Clear
11:53 PM 75.0 °F - 62.1 °F 64% 29.60 in 10.0 mi SSE 27.6 mph 34.5 mph N/A   Clear